| time (UTC) | temp F | wind direction | speed MPH | gust MPH | rain 1hr in | rain 24hr in | rain mn in | humidity % | barometer mb |
| 20260504081558 | 51 | 99 | 2.0 | 2.0 | 0.00 | 0.00 | 0.00 | 78 | 1007.4 |
| 20260504080114 | 53 | 79 | 1.0 | 3.0 | 0.00 | 0.00 | 0.00 | 77 | 1007.6 |
| 20260504044541 | 57 | 207 | 3.0 | 6.0 | 0.00 | 0.00 | 0.00 | 71 | 1007.6 |
| 20260504043038 | 57 | 204 | 3.0 | 5.0 | 0.00 | 0.00 | 0.00 | 72 | 1007.4 |
| 20260504041538 | 56 | 110 | 1.0 | 2.0 | 0.00 | 0.00 | 0.00 | 76 | 1007.3 |
| 20260504040059 | 58 | 110 | 1.0 | 4.0 | 0.00 | 0.00 | 0.00 | 72 | 1007.2 |
| 20260504034538 | 58 | 142 | 1.0 | 2.0 | 0.00 | 0.00 | 0.00 | 72 | 1007.1 |
| 20260504033037 | 61 | 143 | 0.0 | 1.0 | 0.00 | 0.00 | 0.00 | 67 | 1006.9 |
| 20260504031537 | 64 | 143 | 1.0 | 3.0 | 0.00 | 0.00 | 0.00 | 65 | 1006.8 |
| 20260504030035 | 71 | 113 | 1.0 | 3.0 | 0.00 | 0.00 | 0.00 | 50 | 1006.8 |
| 20260504024534 | 74 | 101 | 2.0 | 3.0 | 0.00 | 0.00 | 0.00 | 44 | 1006.8 |
| 20260504023033 | 76 | 356 | 0.0 | 2.0 | 0.00 | 0.00 | 0.00 | 40 | 1006.8 |
| 20260504021532 | 77 | 11 | 1.0 | 5.0 | 0.00 | 0.00 | 0.00 | 39 | 1006.9 |
| 20260504020030 | 78 | 18 | 3.0 | 5.0 | 0.00 | 0.00 | 0.00 | 37 | 1007.1 |
| 20260504014529 | 79 | 345 | 4.0 | 8.0 | 0.00 | 0.00 | 0.00 | 35 | 1007.2 |
| 20260504013028 | 79 | 18 | 5.0 | 8.0 | 0.00 | 0.00 | 0.00 | 34 | 1007.4 |
| 20260504011526 | 79 | 345 | 6.0 | 10.0 | 0.00 | 0.00 | 0.00 | 32 | 1007.5 |
| 20260504010025 | 80 | 7 | 7.0 | 11.0 | 0.00 | 0.00 | 0.00 | 28 | 1007.6 |
| 20260504004537 | 80 | 10 | 7.0 | 11.0 | 0.00 | 0.00 | 0.00 | 30 | 1007.8 |
| 20260504003021 | 80 | 50 | 8.0 | 11.0 | 0.00 | 0.00 | 0.00 | 30 | 1007.9 |
| 20260504001521 | 80 | 36 | 9.0 | 16.0 | 0.00 | 0.00 | 0.00 | 30 | 1008.1 |
| 20260504000020 | 80 | 4 | 9.0 | 14.0 | 0.00 | 0.00 | 0.00 | 27 | 1008.1 |
| 20260503234518 | 80 | 31 | 10.0 | 15.0 | 0.00 | 0.00 | 0.00 | 26 | 1008.4 |
| 20260503233020 | 80 | 11 | 10.0 | 16.0 | 0.00 | 0.00 | 0.00 | 28 | 1008.4 |
| 20260503231515 | 81 | 13 | 8.0 | 14.0 | 0.00 | 0.00 | 0.00 | 28 | 1008.6 |
| 20260503230014 | 80 | 20 | 10.0 | 16.0 | 0.00 | 0.00 | 0.00 | 28 | 1008.6 |
| 20260503224512 | 81 | 30 | 7.0 | 13.0 | 0.00 | 0.00 | 0.00 | 28 | 1008.8 |
| 20260503223009 | 80 | 26 | 6.0 | 12.0 | 0.00 | 0.00 | 0.00 | 25 | 1009.0 |
| 20260503221510 | 80 | 27 | 10.0 | 15.0 | 0.00 | 0.00 | 0.00 | 26 | 1009.2 |
| 20260503220004 | 80 | 356 | 7.0 | 12.0 | 0.00 | 0.00 | 0.00 | 29 | 1009.4 |
| 20260503214503 | 80 | 8 | 5.0 | 10.0 | 0.00 | 0.00 | 0.00 | 36 | 1009.5 |
| 20260503213058 | 80 | 34 | 5.0 | 11.0 | 0.00 | 0.00 | 0.00 | 33 | 1009.7 |
| 20260503211558 | 80 | 29 | 6.0 | 11.0 | 0.00 | 0.00 | 0.00 | 32 | 1009.9 |
| 20260503210055 | 80 | 43 | 5.0 | 9.0 | 0.00 | 0.00 | 0.00 | 34 | 1010.1 |
| 20260503204553 | 80 | 340 | 2.0 | 6.0 | 0.00 | 0.00 | 0.00 | 34 | 1010.2 |
| 20260503203051 | 80 | 219 | 1.0 | 6.0 | 0.00 | 0.00 | 0.00 | 34 | 1010.4 |
| 20260503201549 | 81 | 134 | 0.0 | 2.0 | 0.00 | 0.00 | 0.00 | 35 | 1010.7 |
| 20260503200050 | 78 | 283 | 1.0 | 5.0 | 0.00 | 0.00 | 0.00 | 39 | 1010.9 |
| 20260503194543 | 77 | 271 | 3.0 | 5.0 | 0.00 | 0.00 | 0.00 | 37 | 1011.0 |
| 20260503193044 | 76 | 292 | 2.0 | 5.0 | 0.00 | 0.00 | 0.00 | 38 | 1011.2 |
| 20260503191539 | 75 | 221 | 1.0 | 5.0 | 0.00 | 0.00 | 0.00 | 40 | 1011.5 |
| 20260503190044 | 75 | 302 | 2.0 | 6.0 | 0.00 | 0.00 | 0.00 | 40 | 1011.7 |
| 20260503184535 | 74 | 18 | 0.0 | 5.0 | 0.00 | 0.00 | 0.00 | 40 | 1011.9 |
| 20260503183036 | 73 | 21 | 2.0 | 6.0 | 0.00 | 0.00 | 0.00 | 41 | 1012.0 |
| 20260503181531 | 73 | 331 | 2.0 | 6.0 | 0.00 | 0.00 | 0.00 | 46 | 1012.1 |
| 20260503180031 | 72 | 213 | 2.0 | 4.0 | 0.00 | 0.00 | 0.00 | 42 | 1012.3 |
| 20260503174532 | 71 | 360 | 1.0 | 4.0 | 0.00 | 0.00 | 0.00 | 43 | 1012.3 |
| 20260503173028 | 71 | 6 | 0.0 | 5.0 | 0.00 | 0.00 | 0.00 | 47 | 1012.4 |
| 20260503171525 | 71 | 105 | 1.0 | 3.0 | 0.00 | 0.00 | 0.00 | 45 | 1012.4 |
| 20260503150109 | 57 | 158 | 0.0 | 1.0 | 0.00 | 0.00 | 0.00 | 71 | 1012.6 |